CW3660 Weather Reports


Display with metric or nautical units.
time (UTC)temp
F
wind
direction
speed
MPH
gust
MPH
rain 1hr
in
rain 24hr
in
rain mn
in
humidity
%
barometer
mb
20260503232016 51 293 4.0 10.0 0.00 0.01 0.01 41 1007.9
20260503231016 51 315 5.0 10.0 0.00 0.01 0.01 41 1007.7
20260503230016 51 315 6.0 15.0 0.00 0.01 0.01 40 1007.6
20260503225016 52 293 6.0 16.0 0.00 0.01 0.01 39 1007.5
20260503224036 52 315 6.0 15.0 0.00 0.01 0.01 39 1007.4
20260503223037 52 315 4.0 9.0 0.00 0.01 0.01 41 1007.2
20260503222016 52 315 5.0 10.0 0.00 0.01 0.01 40 1007.0
20260503221016 52 315 5.0 12.0 0.00 0.01 0.01 40 1007.0
20260503220016 52 315 7.0 17.0 0.00 0.01 0.01 39 1006.9
20260503215016 52 293 6.0 15.0 0.00 0.01 0.01 39 1006.9
20260503214016 52 315 7.0 17.0 0.00 0.01 0.01 39 1006.7
20260503213016 52 315 7.0 17.0 0.00 0.01 0.01 40 1006.6
20260503212036 53 315 6.0 15.0 0.00 0.01 0.01 38 1006.5
20260503211015 53 315 7.0 15.0 0.00 0.01 0.01 40 1006.4
20260503210015 53 315 6.0 19.0 0.00 0.01 0.01 39 1006.2
20260503205016 53 270 5.0 10.0 0.00 0.01 0.01 39 1006.0
20260503204036 53 315 5.0 14.0 0.00 0.01 0.01 39 1005.9
20260503203015 53 338 6.0 14.0 0.00 0.01 0.01 39 1005.8
20260503202016 53 315 7.0 16.0 0.00 0.01 0.01 39 1005.7
20260503201016 53 293 7.0 15.0 0.00 0.01 0.01 38 1005.7
20260503200015 53 315 5.0 13.0 0.00 0.01 0.01 39 1005.7
20260503195015 53 338 6.0 14.0 0.00 0.01 0.01 41 1005.6
20260503194015 53 315 4.0 10.0 0.00 0.01 0.01 42 1005.7
20260503193015 53 315 5.0 11.0 0.00 0.01 0.01 42 1005.7
20260503192015 53 315 5.0 12.0 0.00 0.01 0.01 43 1005.8
20260503191015 52 315 5.0 11.0 0.00 0.01 0.01 43 1005.8
20260503190016 53 315 6.0 14.0 0.00 0.01 0.01 44 1005.8
20260503185015 53 338 7.0 13.0 0.00 0.01 0.01 45 1005.8
20260503184015 53 315 7.0 13.0 0.00 0.01 0.01 47 1005.8
20260503183015 52 315 8.0 16.0 0.00 0.01 0.01 47 1005.9
20260503182015 52 338 7.0 16.0 0.00 0.01 0.01 48 1005.9
20260503181015 52 315 6.0 15.0 0.00 0.01 0.01 50 1006.0
20260503180017 51 315 6.0 16.0 0.00 0.01 0.01 51 1006.0
20260503175018 51 315 7.0 16.0 0.00 0.01 0.01 53 1006.1
20260503174017 51 315 7.0 16.0 0.00 0.01 0.01 54 1006.1
20260503173017 51 338 7.0 14.0 0.00 0.01 0.01 55 1006.0
20260503172017 50 338 8.0 17.0 0.00 0.02 0.01 55 1006.0
20260503171017 51 338 9.0 21.0 0.00 0.02 0.01 54 1006.0
20260503131017 42 315 3.0 9.0 0.01 0.02 0.01 89 1006.6
20260503081016 44 338 1.0 3.0 0.00 0.09 0.00 87 1008.1
20260503072016 44 315 1.0 4.0 0.00 0.09 0.00 88 1008.2
20260503071016 44 315 2.0 4.0 0.00 0.09 0.00 88 1008.4
20260503055016 45 0 2.0 6.0 0.00 0.09 0.00 86 1009.5
20260503054016 45 315 2.0 9.0 0.00 0.09 0.00 86 1009.3
20260503053036 45 338 3.0 9.0 0.00 0.09 0.00 86 1009.4
20260503052016 45 338 2.0 9.0 0.00 0.09 0.00 87 1009.7
20260503051016 46 315 1.0 4.0 0.00 0.09 0.00 87 1009.6
20260503050016 46 315 1.0 4.0 0.00 0.09 0.00 88 1009.7
20260503045036 46 315 2.0 5.0 0.00 0.09 0.00 88 1009.8
20260503044016 46 315 2.0 4.0 0.00 0.09 0.00 88 1010.1
20260503043016 46 315 1.0 3.0 0.00 0.09 0.00 88 1010.1
20260503042016 46 0.0 3.0 0.00 0.09 0.00 88 1010.2
20260503041016 47 315 1.0 3.0 0.00 0.09 0.00 88 1010.3
20260503040016 47 315 1.0 5.0 0.00 0.09 0.09 88 1010.2
20260503035016 47 293 2.0 4.0 0.00 0.09 0.09 88 1010.3
20260503034016 47 293 1.0 3.0 0.00 0.09 0.09 88 1010.4
20260503033016 47 0.0 0.0 0.00 0.09 0.09 88 1010.4
20260503032016 48 0.0 0.0 0.00 0.09 0.09 87 1010.5
20260503031036 48 0.0 0.0 0.00 0.09 0.09 87 1010.3
20260503030016 48 0.0 0.0 0.00 0.09 0.09 86 1010.4
20260503025016 48 315 1.0 4.0 0.00 0.09 0.09 86 1010.3
20260503024016 49 0 1.0 3.0 0.00 0.09 0.09 85 1010.3
20260503023016 49 0 1.0 3.0 0.00 0.09 0.09 84 1010.2
20260503022016 49 23 1.0 3.0 0.00 0.09 0.09 83 1010.4
20260503021036 49 0.0 2.0 0.00 0.09 0.09 83 1010.6
20260503020016 50 0.0 0.0 0.00 0.09 0.09 82 1010.6
20260503015036 50 0.0 0.0 0.00 0.09 0.09 82 1010.6
20260503014016 50 23 1.0 3.0 0.00 0.09 0.09 82 1010.6
20260503013036 50 23 1.0 3.0 0.00 0.09 0.09 82 1010.5
20260503012016 50 0 1.0 3.0 0.00 0.09 0.09 82 1010.5
20260503011016 50 45 2.0 5.0 0.00 0.09 0.09 83 1010.4
20260503010016 50 0 2.0 5.0 0.00 0.09 0.09 84 1010.4
20260503005016 50 338 3.0 7.0 0.00 0.09 0.09 84 1010.4
20260503004016 50 23 3.0 5.0 0.00 0.09 0.09 85 1010.5
20260503003016 50 0 3.0 6.0 0.00 0.09 0.09 86 1010.5
20260503002016 51 0 2.0 6.0 0.00 0.09 0.09 86 1010.5
20260503000016 51 338 4.0 7.0 0.00 0.09 0.09 85 1010.3
20260502235016 51 225 1.0 3.0 0.00 0.09 0.09 81 1010.2
20260502234016 51 225 1.0 2.0 0.00 0.09 0.09 81 1010.0
20260502233016 51 0.0 2.0 0.00 0.09 0.09 81 1010.1